Index of /20260509/WXO-DD/model_rdps/10km/00/021
Name Last modified Size Description
Parent Directory -
20260509T00Z_MSC_RDPS_AbsoluteVorticity_IsbL-0250_RLatLon0.09_PT021H.grib2 2026-05-09 02:45 609K
20260509T00Z_MSC_RDPS_AbsoluteVorticity_IsbL-0500_RLatLon0.09_PT021H.grib2 2026-05-09 02:45 571K
20260509T00Z_MSC_RDPS_AbsoluteVorticity_IsbL-0700_RLatLon0.09_PT021H.grib2 2026-05-09 02:45 637K
20260509T00Z_MSC_RDPS_AbsoluteVorticity_IsbL-0850_RLatLon0.09_PT021H.grib2 2026-05-09 02:45 794K
20260509T00Z_MSC_RDPS_AirTemp_AGL-120m_RLatLon0.09_PT021H.grib2 2026-05-09 02:45 377K
20260509T00Z_MSC_RDPS_AirTemp_AGL-2m_RLatLon0.09_PT021H.grib2 2026-05-09 02:45 626K
20260509T00Z_MSC_RDPS_AirTemp_AGL-40m_RLatLon0.09_PT021H.grib2 2026-05-09 02:45 384K
20260509T00Z_MSC_RDPS_AirTemp_AGL-80m_RLatLon0.09_PT021H.grib2 2026-05-09 02:45 380K
20260509T00Z_MSC_RDPS_AirTemp_IsbL-0001_RLatLon0.09_PT021H.grib2 2026-05-09 02:45 323K
20260509T00Z_MSC_RDPS_AirTemp_IsbL-0005_RLatLon0.09_PT021H.grib2 2026-05-09 02:45 379K
20260509T00Z_MSC_RDPS_AirTemp_IsbL-0010_RLatLon0.09_PT021H.grib2 2026-05-09 02:45 395K
20260509T00Z_MSC_RDPS_AirTemp_IsbL-0020_RLatLon0.09_PT021H.grib2 2026-05-09 02:45 317K
20260509T00Z_MSC_RDPS_AirTemp_IsbL-0030_RLatLon0.09_PT021H.grib2 2026-05-09 02:45 335K
20260509T00Z_MSC_RDPS_AirTemp_IsbL-0050_RLatLon0.09_PT021H.grib2 2026-05-09 02:45 307K
20260509T00Z_MSC_RDPS_AirTemp_IsbL-0100_RLatLon0.09_PT021H.grib2 2026-05-09 02:45 426K
20260509T00Z_MSC_RDPS_AirTemp_IsbL-0150_RLatLon0.09_PT021H.grib2 2026-05-09 02:45 415K
20260509T00Z_MSC_RDPS_AirTemp_IsbL-0175_RLatLon0.09_PT021H.grib2 2026-05-09 02:45 411K
20260509T00Z_MSC_RDPS_AirTemp_IsbL-0200_RLatLon0.09_PT021H.grib2 2026-05-09 02:45 415K
20260509T00Z_MSC_RDPS_AirTemp_IsbL-0225_RLatLon0.09_PT021H.grib2 2026-05-09 02:45 416K
20260509T00Z_MSC_RDPS_AirTemp_IsbL-0250_RLatLon0.09_PT021H.grib2 2026-05-09 02:45 425K
20260509T00Z_MSC_RDPS_AirTemp_IsbL-0275_RLatLon0.09_PT021H.grib2 2026-05-09 02:45 406K
20260509T00Z_MSC_RDPS_AirTemp_IsbL-0300_RLatLon0.09_PT021H.grib2 2026-05-09 02:45 436K
20260509T00Z_MSC_RDPS_AirTemp_IsbL-0350_RLatLon0.09_PT021H.grib2 2026-05-09 02:45 422K
20260509T00Z_MSC_RDPS_AirTemp_IsbL-0400_RLatLon0.09_PT021H.grib2 2026-05-09 02:45 425K
20260509T00Z_MSC_RDPS_AirTemp_IsbL-0450_RLatLon0.09_PT021H.grib2 2026-05-09 02:45 436K
20260509T00Z_MSC_RDPS_AirTemp_IsbL-0500_RLatLon0.09_PT021H.grib2 2026-05-09 02:45 449K
20260509T00Z_MSC_RDPS_AirTemp_IsbL-0550_RLatLon0.09_PT021H.grib2 2026-05-09 02:45 469K
20260509T00Z_MSC_RDPS_AirTemp_IsbL-0600_RLatLon0.09_PT021H.grib2 2026-05-09 02:45 490K
20260509T00Z_MSC_RDPS_AirTemp_IsbL-0650_RLatLon0.09_PT021H.grib2 2026-05-09 02:45 509K
20260509T00Z_MSC_RDPS_AirTemp_IsbL-0700_RLatLon0.09_PT021H.grib2 2026-05-09 02:45 539K
20260509T00Z_MSC_RDPS_AirTemp_IsbL-0750_RLatLon0.09_PT021H.grib2 2026-05-09 02:45 543K
20260509T00Z_MSC_RDPS_AirTemp_IsbL-0800_RLatLon0.09_PT021H.grib2 2026-05-09 02:45 470K
20260509T00Z_MSC_RDPS_AirTemp_IsbL-0850_RLatLon0.09_PT021H.grib2 2026-05-09 02:45 509K
20260509T00Z_MSC_RDPS_AirTemp_IsbL-0875_RLatLon0.09_PT021H.grib2 2026-05-09 02:45 524K
20260509T00Z_MSC_RDPS_AirTemp_IsbL-0900_RLatLon0.09_PT021H.grib2 2026-05-09 02:45 532K
20260509T00Z_MSC_RDPS_AirTemp_IsbL-0925_RLatLon0.09_PT021H.grib2 2026-05-09 02:45 533K
20260509T00Z_MSC_RDPS_AirTemp_IsbL-0950_RLatLon0.09_PT021H.grib2 2026-05-09 02:45 533K
20260509T00Z_MSC_RDPS_AirTemp_IsbL-0970_RLatLon0.09_PT021H.grib2 2026-05-09 02:45 527K
20260509T00Z_MSC_RDPS_AirTemp_IsbL-0985_RLatLon0.09_PT021H.grib2 2026-05-09 02:45 522K
20260509T00Z_MSC_RDPS_AirTemp_IsbL-1000_RLatLon0.09_PT021H.grib2 2026-05-09 02:45 512K
20260509T00Z_MSC_RDPS_AirTemp_IsbL-1015_RLatLon0.09_PT021H.grib2 2026-05-09 02:45 512K
20260509T00Z_MSC_RDPS_Albedo_Sfc_RLatLon0.09_PT021H.grib2 2026-05-09 02:45 162K
20260509T00Z_MSC_RDPS_CAPE_Sfc_RLatLon0.09_PT021H.grib2 2026-05-09 02:45 1.8M
20260509T00Z_MSC_RDPS_CIN_Sfc_RLatLon0.09_PT021H.grib2 2026-05-09 02:45 1.3M
20260509T00Z_MSC_RDPS_CloudWater_EAtm_RLatLon0.09_PT021H.grib2 2026-05-09 02:45 229K
20260509T00Z_MSC_RDPS_ConvectivePrecip-Accum_Sfc_RLatLon0.09_PT021H.grib2 2026-05-09 02:45 866K
20260509T00Z_MSC_RDPS_DewPointDepression_AGL-2m_RLatLon0.09_PT021H.grib2 2026-05-09 02:45 418K
20260509T00Z_MSC_RDPS_DewPointDepression_IsbL-0001_RLatLon0.09_PT021H.grib2 2026-05-09 02:45 193
20260509T00Z_MSC_RDPS_DewPointDepression_IsbL-0005_RLatLon0.09_PT021H.grib2 2026-05-09 02:45 193
20260509T00Z_MSC_RDPS_DewPointDepression_IsbL-0010_RLatLon0.09_PT021H.grib2 2026-05-09 02:45 193
20260509T00Z_MSC_RDPS_DewPointDepression_IsbL-0020_RLatLon0.09_PT021H.grib2 2026-05-09 02:45 193
20260509T00Z_MSC_RDPS_DewPointDepression_IsbL-0030_RLatLon0.09_PT021H.grib2 2026-05-09 02:45 193
20260509T00Z_MSC_RDPS_DewPointDepression_IsbL-0050_RLatLon0.09_PT021H.grib2 2026-05-09 02:45 81K
20260509T00Z_MSC_RDPS_DewPointDepression_IsbL-0100_RLatLon0.09_PT021H.grib2 2026-05-09 02:45 114K
20260509T00Z_MSC_RDPS_DewPointDepression_IsbL-0150_RLatLon0.09_PT021H.grib2 2026-05-09 02:45 152K
20260509T00Z_MSC_RDPS_DewPointDepression_IsbL-0175_RLatLon0.09_PT021H.grib2 2026-05-09 02:45 180K
20260509T00Z_MSC_RDPS_DewPointDepression_IsbL-0200_RLatLon0.09_PT021H.grib2 2026-05-09 02:45 225K
20260509T00Z_MSC_RDPS_DewPointDepression_IsbL-0225_RLatLon0.09_PT021H.grib2 2026-05-09 02:45 272K
20260509T00Z_MSC_RDPS_DewPointDepression_IsbL-0250_RLatLon0.09_PT021H.grib2 2026-05-09 02:45 311K
20260509T00Z_MSC_RDPS_DewPointDepression_IsbL-0275_RLatLon0.09_PT021H.grib2 2026-05-09 02:45 313K
20260509T00Z_MSC_RDPS_DewPointDepression_IsbL-0300_RLatLon0.09_PT021H.grib2 2026-05-09 02:45 323K
20260509T00Z_MSC_RDPS_DewPointDepression_IsbL-0350_RLatLon0.09_PT021H.grib2 2026-05-09 02:45 324K
20260509T00Z_MSC_RDPS_DewPointDepression_IsbL-0400_RLatLon0.09_PT021H.grib2 2026-05-09 02:45 333K
20260509T00Z_MSC_RDPS_DewPointDepression_IsbL-0450_RLatLon0.09_PT021H.grib2 2026-05-09 02:45 337K
20260509T00Z_MSC_RDPS_DewPointDepression_IsbL-0500_RLatLon0.09_PT021H.grib2 2026-05-09 02:45 344K
20260509T00Z_MSC_RDPS_DewPointDepression_IsbL-0550_RLatLon0.09_PT021H.grib2 2026-05-09 02:45 358K
20260509T00Z_MSC_RDPS_DewPointDepression_IsbL-0600_RLatLon0.09_PT021H.grib2 2026-05-09 02:45 374K
20260509T00Z_MSC_RDPS_DewPointDepression_IsbL-0650_RLatLon0.09_PT021H.grib2 2026-05-09 02:45 388K
20260509T00Z_MSC_RDPS_DewPointDepression_IsbL-0700_RLatLon0.09_PT021H.grib2 2026-05-09 02:45 403K
20260509T00Z_MSC_RDPS_DewPointDepression_IsbL-0750_RLatLon0.09_PT021H.grib2 2026-05-09 02:45 428K
20260509T00Z_MSC_RDPS_DewPointDepression_IsbL-0800_RLatLon0.09_PT021H.grib2 2026-05-09 02:45 461K
20260509T00Z_MSC_RDPS_DewPointDepression_IsbL-0850_RLatLon0.09_PT021H.grib2 2026-05-09 02:45 477K
20260509T00Z_MSC_RDPS_DewPointDepression_IsbL-0875_RLatLon0.09_PT021H.grib2 2026-05-09 02:45 473K
20260509T00Z_MSC_RDPS_DewPointDepression_IsbL-0900_RLatLon0.09_PT021H.grib2 2026-05-09 02:45 463K
20260509T00Z_MSC_RDPS_DewPointDepression_IsbL-0925_RLatLon0.09_PT021H.grib2 2026-05-09 02:45 450K
20260509T00Z_MSC_RDPS_DewPointDepression_IsbL-0950_RLatLon0.09_PT021H.grib2 2026-05-09 02:45 439K
20260509T00Z_MSC_RDPS_DewPointDepression_IsbL-0970_RLatLon0.09_PT021H.grib2 2026-05-09 02:45 431K
20260509T00Z_MSC_RDPS_DewPointDepression_IsbL-0985_RLatLon0.09_PT021H.grib2 2026-05-09 02:45 425K
20260509T00Z_MSC_RDPS_DewPointDepression_IsbL-1000_RLatLon0.09_PT021H.grib2 2026-05-09 02:45 421K
20260509T00Z_MSC_RDPS_DewPointDepression_IsbL-1015_RLatLon0.09_PT021H.grib2 2026-05-09 02:45 413K
20260509T00Z_MSC_RDPS_DewPoint_AGL-2m_RLatLon0.09_PT021H.grib2 2026-05-09 02:45 395K
20260509T00Z_MSC_RDPS_DownwardLongwaveRadiationFlux-Accum_Sfc_RLatLon0.09_PT021H.grib2 2026-05-09 02:45 418K
20260509T00Z_MSC_RDPS_DownwardShortwaveRadiationFlux-Accum_NTAtm_RLatLon0.09_PT021H.grib2 2026-05-09 02:45 126K
20260509T00Z_MSC_RDPS_DownwardShortwaveRadiationFlux-Accum_Sfc_RLatLon0.09_PT021H.grib2 2026-05-09 02:45 620K
20260509T00Z_MSC_RDPS_FreezingRain-Accum1h_Sfc_RLatLon0.09_PT021H.grib2 2026-05-09 02:45 13K
20260509T00Z_MSC_RDPS_FreezingRain-Accum3h_Sfc_RLatLon0.09_PT021H.grib2 2026-05-09 02:45 17K
20260509T00Z_MSC_RDPS_FreezingRain-Accum_Sfc_RLatLon0.09_PT021H.grib2 2026-05-09 02:45 106K
20260509T00Z_MSC_RDPS_GeopotentialHeight_IsbL-0001_RLatLon0.09_PT021H.grib2 2026-05-09 02:45 280K
20260509T00Z_MSC_RDPS_GeopotentialHeight_IsbL-0005_RLatLon0.09_PT021H.grib2 2026-05-09 02:45 312K
20260509T00Z_MSC_RDPS_GeopotentialHeight_IsbL-0010_RLatLon0.09_PT021H.grib2 2026-05-09 02:45 313K
20260509T00Z_MSC_RDPS_GeopotentialHeight_IsbL-0020_RLatLon0.09_PT021H.grib2 2026-05-09 02:45 312K
20260509T00Z_MSC_RDPS_GeopotentialHeight_IsbL-0030_RLatLon0.09_PT021H.grib2 2026-05-09 02:45 312K
20260509T00Z_MSC_RDPS_GeopotentialHeight_IsbL-0050_RLatLon0.09_PT021H.grib2 2026-05-09 02:45 313K
20260509T00Z_MSC_RDPS_GeopotentialHeight_IsbL-0100_RLatLon0.09_PT021H.grib2 2026-05-09 02:45 287K
20260509T00Z_MSC_RDPS_GeopotentialHeight_IsbL-0150_RLatLon0.09_PT021H.grib2 2026-05-09 02:45 229K
20260509T00Z_MSC_RDPS_GeopotentialHeight_IsbL-0175_RLatLon0.09_PT021H.grib2 2026-05-09 02:45 232K
20260509T00Z_MSC_RDPS_GeopotentialHeight_IsbL-0200_RLatLon0.09_PT021H.grib2 2026-05-09 02:45 235K
20260509T00Z_MSC_RDPS_GeopotentialHeight_IsbL-0225_RLatLon0.09_PT021H.grib2 2026-05-09 02:45 267K
20260509T00Z_MSC_RDPS_GeopotentialHeight_IsbL-0250_RLatLon0.09_PT021H.grib2 2026-05-09 02:45 269K
20260509T00Z_MSC_RDPS_GeopotentialHeight_IsbL-0275_RLatLon0.09_PT021H.grib2 2026-05-09 02:45 269K
20260509T00Z_MSC_RDPS_GeopotentialHeight_IsbL-0300_RLatLon0.09_PT021H.grib2 2026-05-09 02:45 238K
20260509T00Z_MSC_RDPS_GeopotentialHeight_IsbL-0350_RLatLon0.09_PT021H.grib2 2026-05-09 02:45 233K
20260509T00Z_MSC_RDPS_GeopotentialHeight_IsbL-0400_RLatLon0.09_PT021H.grib2 2026-05-09 02:45 229K
20260509T00Z_MSC_RDPS_GeopotentialHeight_IsbL-0450_RLatLon0.09_PT021H.grib2 2026-05-09 02:45 298K
20260509T00Z_MSC_RDPS_GeopotentialHeight_IsbL-0500_RLatLon0.09_PT021H.grib2 2026-05-09 02:45 293K
20260509T00Z_MSC_RDPS_GeopotentialHeight_IsbL-0550_RLatLon0.09_PT021H.grib2 2026-05-09 02:45 290K
20260509T00Z_MSC_RDPS_GeopotentialHeight_IsbL-0600_RLatLon0.09_PT021H.grib2 2026-05-09 02:45 286K
20260509T00Z_MSC_RDPS_GeopotentialHeight_IsbL-0650_RLatLon0.09_PT021H.grib2 2026-05-09 02:45 259K
20260509T00Z_MSC_RDPS_GeopotentialHeight_IsbL-0700_RLatLon0.09_PT021H.grib2 2026-05-09 02:45 260K
20260509T00Z_MSC_RDPS_GeopotentialHeight_IsbL-0750_RLatLon0.09_PT021H.grib2 2026-05-09 02:45 263K
20260509T00Z_MSC_RDPS_GeopotentialHeight_IsbL-0800_RLatLon0.09_PT021H.grib2 2026-05-09 02:45 269K
20260509T00Z_MSC_RDPS_GeopotentialHeight_IsbL-0850_RLatLon0.09_PT021H.grib2 2026-05-09 02:45 360K
20260509T00Z_MSC_RDPS_GeopotentialHeight_IsbL-0875_RLatLon0.09_PT021H.grib2 2026-05-09 02:45 361K
20260509T00Z_MSC_RDPS_GeopotentialHeight_IsbL-0900_RLatLon0.09_PT021H.grib2 2026-05-09 02:45 368K
20260509T00Z_MSC_RDPS_GeopotentialHeight_IsbL-0925_RLatLon0.09_PT021H.grib2 2026-05-09 02:45 370K
20260509T00Z_MSC_RDPS_GeopotentialHeight_IsbL-0950_RLatLon0.09_PT021H.grib2 2026-05-09 02:45 374K
20260509T00Z_MSC_RDPS_GeopotentialHeight_IsbL-0970_RLatLon0.09_PT021H.grib2 2026-05-09 02:45 383K
20260509T00Z_MSC_RDPS_GeopotentialHeight_IsbL-0985_RLatLon0.09_PT021H.grib2 2026-05-09 02:45 392K
20260509T00Z_MSC_RDPS_GeopotentialHeight_IsbL-1000_RLatLon0.09_PT021H.grib2 2026-05-09 02:45 404K
20260509T00Z_MSC_RDPS_GeopotentialHeight_IsbL-1015_RLatLon0.09_PT021H.grib2 2026-05-09 02:45 417K
20260509T00Z_MSC_RDPS_HighLowPressure_MSL_RLatLon0.09_PT021H.json 2026-05-09 02:37 17K
20260509T00Z_MSC_RDPS_Humidex_Sfc_RLatLon0.09_PT021H.grib2 2026-05-09 02:45 2.4M
20260509T00Z_MSC_RDPS_IcePellets-Accum1h_Sfc_RLatLon0.09_PT021H.grib2 2026-05-09 02:45 4.7K
20260509T00Z_MSC_RDPS_IcePellets-Accum3h_Sfc_RLatLon0.09_PT021H.grib2 2026-05-09 02:45 5.0K
20260509T00Z_MSC_RDPS_IcePellets-Accum_Sfc_RLatLon0.09_PT021H.grib2 2026-05-09 02:45 20K
20260509T00Z_MSC_RDPS_KIndex_Sfc_RLatLon0.09_PT021H.grib2 2026-05-09 02:45 2.5M
20260509T00Z_MSC_RDPS_LatentHeatNetFlux_Sfc_RLatLon0.09_PT021H.grib2 2026-05-09 02:45 318K
20260509T00Z_MSC_RDPS_LiftedIndex-MU-VT_IsbL-0500_RLatLon0.09_PT021H.grib2 2026-05-09 02:45 2.4M
20260509T00Z_MSC_RDPS_NetLongwaveRadiationFlux-Accum_Sfc_RLatLon0.09_PT021H.grib2 2026-05-09 02:45 557K
20260509T00Z_MSC_RDPS_NetShortwaveRadiationFlux-Accum_Sfc_RLatLon0.09_PT021H.grib2 2026-05-09 02:45 617K
20260509T00Z_MSC_RDPS_PlanetaryBoundaryLayerHeight_Sfc_RLatLon0.09_PT021H.grib2 2026-05-09 02:45 1.0M
20260509T00Z_MSC_RDPS_Precip-Accum1h_Sfc_RLatLon0.09_PT021H.grib2 2026-05-09 02:45 1.2M
20260509T00Z_MSC_RDPS_Precip-Accum3h_Sfc_RLatLon0.09_PT021H.grib2 2026-05-09 02:45 1.3M
20260509T00Z_MSC_RDPS_Precip-Accum_Sfc_RLatLon0.09_PT021H.grib2 2026-05-09 02:45 1.8M
20260509T00Z_MSC_RDPS_PrecipRate_Sfc_RLatLon0.09_PT021H.grib2 2026-05-09 02:45 194K
20260509T00Z_MSC_RDPS_PrecipType-Instant_Sfc_RLatLon0.09_PT021H.grib2 2026-05-09 02:45 627K
20260509T00Z_MSC_RDPS_Pressure-Trend3h_Sfc_RLatLon0.09_PT021H.grib2 2026-05-09 02:45 1.2M
20260509T00Z_MSC_RDPS_Pressure_MSL_RLatLon0.09_PT021H.grib2 2026-05-09 02:45 333K
20260509T00Z_MSC_RDPS_Pressure_PVU-1.5_RLatLon0.09_PT021H.grib2 2026-05-09 02:45 2.5M
20260509T00Z_MSC_RDPS_Pressure_PVU-1_RLatLon0.09_PT021H.grib2 2026-05-09 02:45 2.4M
20260509T00Z_MSC_RDPS_Pressure_PVU-2_RLatLon0.09_PT021H.grib2 2026-05-09 02:45 2.4M
20260509T00Z_MSC_RDPS_Pressure_Sfc_RLatLon0.09_PT021H.grib2 2026-05-09 02:45 500K
20260509T00Z_MSC_RDPS_RadiativeTemp_Sfc_RLatLon0.09_PT021H.grib2 2026-05-09 02:45 326K
20260509T00Z_MSC_RDPS_Rain-Accum1h_Sfc_RLatLon0.09_PT021H.grib2 2026-05-09 02:45 662K
20260509T00Z_MSC_RDPS_Rain-Accum3h_Sfc_RLatLon0.09_PT021H.grib2 2026-05-09 02:45 756K
20260509T00Z_MSC_RDPS_Rain-Accum_Sfc_RLatLon0.09_PT021H.grib2 2026-05-09 02:45 1.4M
20260509T00Z_MSC_RDPS_RelativeHumidity_AGL-2m_RLatLon0.09_PT021H.grib2 2026-05-09 02:45 1.0M
20260509T00Z_MSC_RDPS_RelativeHumidity_IsbL-0010_RLatLon0.09_PT021H.grib2 2026-05-09 02:45 609K
20260509T00Z_MSC_RDPS_RelativeHumidity_IsbL-0020_RLatLon0.09_PT021H.grib2 2026-05-09 02:45 653K
20260509T00Z_MSC_RDPS_RelativeHumidity_IsbL-0030_RLatLon0.09_PT021H.grib2 2026-05-09 02:45 632K
20260509T00Z_MSC_RDPS_RelativeHumidity_IsbL-0050_RLatLon0.09_PT021H.grib2 2026-05-09 02:45 357K
20260509T00Z_MSC_RDPS_RelativeHumidity_IsbL-0100_RLatLon0.09_PT021H.grib2 2026-05-09 02:45 281K
20260509T00Z_MSC_RDPS_RelativeHumidity_IsbL-0150_RLatLon0.09_PT021H.grib2 2026-05-09 02:45 422K
20260509T00Z_MSC_RDPS_RelativeHumidity_IsbL-0175_RLatLon0.09_PT021H.grib2 2026-05-09 02:45 477K
20260509T00Z_MSC_RDPS_RelativeHumidity_IsbL-0200_RLatLon0.09_PT021H.grib2 2026-05-09 02:45 549K
20260509T00Z_MSC_RDPS_RelativeHumidity_IsbL-0225_RLatLon0.09_PT021H.grib2 2026-05-09 02:45 623K
20260509T00Z_MSC_RDPS_RelativeHumidity_IsbL-0250_RLatLon0.09_PT021H.grib2 2026-05-09 02:45 695K
20260509T00Z_MSC_RDPS_RelativeHumidity_IsbL-0275_RLatLon0.09_PT021H.grib2 2026-05-09 02:45 722K
20260509T00Z_MSC_RDPS_RelativeHumidity_IsbL-0300_RLatLon0.09_PT021H.grib2 2026-05-09 02:45 756K
20260509T00Z_MSC_RDPS_RelativeHumidity_IsbL-0350_RLatLon0.09_PT021H.grib2 2026-05-09 02:45 765K
20260509T00Z_MSC_RDPS_RelativeHumidity_IsbL-0400_RLatLon0.09_PT021H.grib2 2026-05-09 02:45 780K
20260509T00Z_MSC_RDPS_RelativeHumidity_IsbL-0450_RLatLon0.09_PT021H.grib2 2026-05-09 02:45 788K
20260509T00Z_MSC_RDPS_RelativeHumidity_IsbL-0500_RLatLon0.09_PT021H.grib2 2026-05-09 02:45 798K
20260509T00Z_MSC_RDPS_RelativeHumidity_IsbL-0550_RLatLon0.09_PT021H.grib2 2026-05-09 02:45 817K
20260509T00Z_MSC_RDPS_RelativeHumidity_IsbL-0600_RLatLon0.09_PT021H.grib2 2026-05-09 02:45 842K
20260509T00Z_MSC_RDPS_RelativeHumidity_IsbL-0650_RLatLon0.09_PT021H.grib2 2026-05-09 02:45 861K
20260509T00Z_MSC_RDPS_RelativeHumidity_IsbL-0700_RLatLon0.09_PT021H.grib2 2026-05-09 02:45 902K
20260509T00Z_MSC_RDPS_RelativeHumidity_IsbL-0750_RLatLon0.09_PT021H.grib2 2026-05-09 02:45 955K
20260509T00Z_MSC_RDPS_RelativeHumidity_IsbL-0800_RLatLon0.09_PT021H.grib2 2026-05-09 02:45 1.0M
20260509T00Z_MSC_RDPS_RelativeHumidity_IsbL-0850_RLatLon0.09_PT021H.grib2 2026-05-09 02:45 1.0M
20260509T00Z_MSC_RDPS_RelativeHumidity_IsbL-0875_RLatLon0.09_PT021H.grib2 2026-05-09 02:45 1.1M
20260509T00Z_MSC_RDPS_RelativeHumidity_IsbL-0900_RLatLon0.09_PT021H.grib2 2026-05-09 02:45 1.1M
20260509T00Z_MSC_RDPS_RelativeHumidity_IsbL-0925_RLatLon0.09_PT021H.grib2 2026-05-09 02:45 1.1M
20260509T00Z_MSC_RDPS_RelativeHumidity_IsbL-0950_RLatLon0.09_PT021H.grib2 2026-05-09 02:45 1.1M
20260509T00Z_MSC_RDPS_RelativeHumidity_IsbL-0970_RLatLon0.09_PT021H.grib2 2026-05-09 02:45 1.0M
20260509T00Z_MSC_RDPS_RelativeHumidity_IsbL-0985_RLatLon0.09_PT021H.grib2 2026-05-09 02:45 1.0M
20260509T00Z_MSC_RDPS_RelativeHumidity_IsbL-1000_RLatLon0.09_PT021H.grib2 2026-05-09 02:45 1.0M
20260509T00Z_MSC_RDPS_RelativeHumidity_IsbL-1015_RLatLon0.09_PT021H.grib2 2026-05-09 02:45 1.0M
20260509T00Z_MSC_RDPS_Runoff-Accum_Sfc_RLatLon0.09_PT021H.grib2 2026-05-09 02:45 49K
20260509T00Z_MSC_RDPS_SWEATIndex_Sfc_RLatLon0.09_PT021H.grib2 2026-05-09 02:45 2.5M
20260509T00Z_MSC_RDPS_SeeingIndex_EAtm_RLatLon0.09_PT021H.grib2 2026-05-09 02:45 1.0M
20260509T00Z_MSC_RDPS_SensibleHeatNetFlux_Sfc_RLatLon0.09_PT021H.grib2 2026-05-09 02:45 279K
20260509T00Z_MSC_RDPS_ShowalterIndex_IsbL-0500_RLatLon0.09_PT021H.grib2 2026-05-09 02:45 2.6M
20260509T00Z_MSC_RDPS_SkyTransparencyIndex_EAtm_RLatLon0.09_PT021H.grib2 2026-05-09 02:45 691K
20260509T00Z_MSC_RDPS_Snow-Accum1h_Sfc_RLatLon0.09_PT021H.grib2 2026-05-09 02:45 354K
20260509T00Z_MSC_RDPS_Snow-Accum3h_Sfc_RLatLon0.09_PT021H.grib2 2026-05-09 02:45 368K
20260509T00Z_MSC_RDPS_Snow-Accum_Sfc_RLatLon0.09_PT021H.grib2 2026-05-09 02:45 579K
20260509T00Z_MSC_RDPS_SnowDensity_Sfc_RLatLon0.09_PT021H.grib2 2026-05-09 02:45 166K
20260509T00Z_MSC_RDPS_SnowDepth_Sfc_RLatLon0.09_PT021H.grib2 2026-05-09 02:45 620K
20260509T00Z_MSC_RDPS_SoilTemp_DBS-0to10cm_RLatLon0.09_PT021H.grib2 2026-05-09 02:45 224K
20260509T00Z_MSC_RDPS_SoilTemp_Sfc_RLatLon0.09_PT021H.grib2 2026-05-09 02:45 284K
20260509T00Z_MSC_RDPS_SoilVolumetricIceContent_Sfc_RLatLon0.09_PT021H.grib2 2026-05-09 02:45 144K
20260509T00Z_MSC_RDPS_SoilVolumetricWaterContent_DBS-0to10cm_RLatLon0.09_PT021H.grib2 2026-05-09 02:45 288K
20260509T00Z_MSC_RDPS_SoilVolumetricWaterContent_DBS-0to1cm_RLatLon0.09_PT021H.grib2 2026-05-09 02:45 339K
20260509T00Z_MSC_RDPS_SpecificHumidity_AGL-120m_RLatLon0.09_PT021H.grib2 2026-05-09 02:45 505K
20260509T00Z_MSC_RDPS_SpecificHumidity_AGL-2m_RLatLon0.09_PT021H.grib2 2026-05-09 02:45 676K
20260509T00Z_MSC_RDPS_SpecificHumidity_AGL-40m_RLatLon0.09_PT021H.grib2 2026-05-09 02:45 509K
20260509T00Z_MSC_RDPS_SpecificHumidity_AGL-80m_RLatLon0.09_PT021H.grib2 2026-05-09 02:45 506K
20260509T00Z_MSC_RDPS_SpecificHumidity_IsbL-0001_RLatLon0.09_PT021H.grib2 2026-05-09 02:45 366K
20260509T00Z_MSC_RDPS_SpecificHumidity_IsbL-0005_RLatLon0.09_PT021H.grib2 2026-05-09 02:45 373K
20260509T00Z_MSC_RDPS_SpecificHumidity_IsbL-0010_RLatLon0.09_PT021H.grib2 2026-05-09 02:45 400K
20260509T00Z_MSC_RDPS_SpecificHumidity_IsbL-0020_RLatLon0.09_PT021H.grib2 2026-05-09 02:45 384K
20260509T00Z_MSC_RDPS_SpecificHumidity_IsbL-0030_RLatLon0.09_PT021H.grib2 2026-05-09 02:45 377K
20260509T00Z_MSC_RDPS_SpecificHumidity_IsbL-0050_RLatLon0.09_PT021H.grib2 2026-05-09 02:45 487K
20260509T00Z_MSC_RDPS_SpecificHumidity_IsbL-0100_RLatLon0.09_PT021H.grib2 2026-05-09 02:45 416K
20260509T00Z_MSC_RDPS_SpecificHumidity_IsbL-0150_RLatLon0.09_PT021H.grib2 2026-05-09 02:45 490K
20260509T00Z_MSC_RDPS_SpecificHumidity_IsbL-0175_RLatLon0.09_PT021H.grib2 2026-05-09 02:45 442K
20260509T00Z_MSC_RDPS_SpecificHumidity_IsbL-0200_RLatLon0.09_PT021H.grib2 2026-05-09 02:45 461K
20260509T00Z_MSC_RDPS_SpecificHumidity_IsbL-0225_RLatLon0.09_PT021H.grib2 2026-05-09 02:45 469K
20260509T00Z_MSC_RDPS_SpecificHumidity_IsbL-0250_RLatLon0.09_PT021H.grib2 2026-05-09 02:45 531K
20260509T00Z_MSC_RDPS_SpecificHumidity_IsbL-0275_RLatLon0.09_PT021H.grib2 2026-05-09 02:45 489K
20260509T00Z_MSC_RDPS_SpecificHumidity_IsbL-0300_RLatLon0.09_PT021H.grib2 2026-05-09 02:45 456K
20260509T00Z_MSC_RDPS_SpecificHumidity_IsbL-0350_RLatLon0.09_PT021H.grib2 2026-05-09 02:45 444K
20260509T00Z_MSC_RDPS_SpecificHumidity_IsbL-0400_RLatLon0.09_PT021H.grib2 2026-05-09 02:45 524K
20260509T00Z_MSC_RDPS_SpecificHumidity_IsbL-0450_RLatLon0.09_PT021H.grib2 2026-05-09 02:45 578K
20260509T00Z_MSC_RDPS_SpecificHumidity_IsbL-0500_RLatLon0.09_PT021H.grib2 2026-05-09 02:45 517K
20260509T00Z_MSC_RDPS_SpecificHumidity_IsbL-0550_RLatLon0.09_PT021H.grib2 2026-05-09 02:45 590K
20260509T00Z_MSC_RDPS_SpecificHumidity_IsbL-0600_RLatLon0.09_PT021H.grib2 2026-05-09 02:45 647K
20260509T00Z_MSC_RDPS_SpecificHumidity_IsbL-0650_RLatLon0.09_PT021H.grib2 2026-05-09 02:45 569K
20260509T00Z_MSC_RDPS_SpecificHumidity_IsbL-0700_RLatLon0.09_PT021H.grib2 2026-05-09 02:45 621K
20260509T00Z_MSC_RDPS_SpecificHumidity_IsbL-0750_RLatLon0.09_PT021H.grib2 2026-05-09 02:45 688K
20260509T00Z_MSC_RDPS_SpecificHumidity_IsbL-0800_RLatLon0.09_PT021H.grib2 2026-05-09 02:45 776K
20260509T00Z_MSC_RDPS_SpecificHumidity_IsbL-0850_RLatLon0.09_PT021H.grib2 2026-05-09 02:45 698K
20260509T00Z_MSC_RDPS_SpecificHumidity_IsbL-0875_RLatLon0.09_PT021H.grib2 2026-05-09 02:45 716K
20260509T00Z_MSC_RDPS_SpecificHumidity_IsbL-0900_RLatLon0.09_PT021H.grib2 2026-05-09 02:45 725K
20260509T00Z_MSC_RDPS_SpecificHumidity_IsbL-0925_RLatLon0.09_PT021H.grib2 2026-05-09 02:45 728K
20260509T00Z_MSC_RDPS_SpecificHumidity_IsbL-0950_RLatLon0.09_PT021H.grib2 2026-05-09 02:45 725K
20260509T00Z_MSC_RDPS_SpecificHumidity_IsbL-0970_RLatLon0.09_PT021H.grib2 2026-05-09 02:45 718K
20260509T00Z_MSC_RDPS_SpecificHumidity_IsbL-0985_RLatLon0.09_PT021H.grib2 2026-05-09 02:45 709K
20260509T00Z_MSC_RDPS_SpecificHumidity_IsbL-1000_RLatLon0.09_PT021H.grib2 2026-05-09 02:45 702K
20260509T00Z_MSC_RDPS_SpecificHumidity_IsbL-1015_RLatLon0.09_PT021H.grib2 2026-05-09 02:45 690K
20260509T00Z_MSC_RDPS_SpecificHumidity_Sfc_RLatLon0.09_PT021H.grib2 2026-05-09 02:45 355K
20260509T00Z_MSC_RDPS_StormRelativeHelicity_EtaL-10000_RLatLon0.09_PT021H.grib2 2026-05-09 02:45 1.1M
20260509T00Z_MSC_RDPS_StormSeverityIndex_EtaL-10000_RLatLon0.09_PT021H.grib2 2026-05-09 02:45 1.1M
20260509T00Z_MSC_RDPS_Thickness_IsbL-0850to0700_RLatLon0.09_PT021H.grib2 2026-05-09 02:45 255K
20260509T00Z_MSC_RDPS_Thickness_IsbL-1000to0500_RLatLon0.09_PT021H.grib2 2026-05-09 02:45 201K
20260509T00Z_MSC_RDPS_Thickness_IsbL-1000to0850_RLatLon0.09_PT021H.grib2 2026-05-09 02:45 267K
20260509T00Z_MSC_RDPS_TotalCloudCover_Sfc_RLatLon0.09_PT021H.grib2 2026-05-09 02:45 651K
20260509T00Z_MSC_RDPS_TotalTotalsIndex_Sfc_RLatLon0.09_PT021H.grib2 2026-05-09 02:45 2.4M
20260509T00Z_MSC_RDPS_UVIndex-ClearSky_Sfc_RLatLon0.09_PT021H.grib2 2026-05-09 02:45 205K
20260509T00Z_MSC_RDPS_UVIndex_Sfc_RLatLon0.09_PT021H.grib2 2026-05-09 02:45 488K
20260509T00Z_MSC_RDPS_UpwardLongwaveRadiationFlux_NTAtm_RLatLon0.09_PT021H.grib2 2026-05-09 02:45 387K
20260509T00Z_MSC_RDPS_UpwardShortwaveRadiationFlux_NTAtm_RLatLon0.09_PT021H.grib2 2026-05-09 02:45 524K
20260509T00Z_MSC_RDPS_VerticalVelocity_IsbL-0250_RLatLon0.09_PT021H.grib2 2026-05-09 02:45 582K
20260509T00Z_MSC_RDPS_VerticalVelocity_IsbL-0500_RLatLon0.09_PT021H.grib2 2026-05-09 02:45 539K
20260509T00Z_MSC_RDPS_VerticalVelocity_IsbL-0700_RLatLon0.09_PT021H.grib2 2026-05-09 02:45 633K
20260509T00Z_MSC_RDPS_VerticalVelocity_IsbL-0850_RLatLon0.09_PT021H.grib2 2026-05-09 02:45 715K
20260509T00Z_MSC_RDPS_VerticalWindShear_EtaL-6500_RLatLon0.09_PT021H.grib2 2026-05-09 02:45 1.2M
20260509T00Z_MSC_RDPS_WindChill_Sfc_RLatLon0.09_PT021H.grib2 2026-05-09 02:45 1.2M
20260509T00Z_MSC_RDPS_WindDir_AGL-10m_RLatLon0.09_PT021H.grib2 2026-05-09 02:45 957K
20260509T00Z_MSC_RDPS_WindDir_AGL-120m_RLatLon0.09_PT021H.grib2 2026-05-09 02:45 605K
20260509T00Z_MSC_RDPS_WindDir_AGL-40m_RLatLon0.09_PT021H.grib2 2026-05-09 02:45 626K
20260509T00Z_MSC_RDPS_WindDir_AGL-80m_RLatLon0.09_PT021H.grib2 2026-05-09 02:45 614K
20260509T00Z_MSC_RDPS_WindDir_IsbL-0001_RLatLon0.09_PT021H.grib2 2026-05-09 02:45 278K
20260509T00Z_MSC_RDPS_WindDir_IsbL-0005_RLatLon0.09_PT021H.grib2 2026-05-09 02:45 354K
20260509T00Z_MSC_RDPS_WindDir_IsbL-0010_RLatLon0.09_PT021H.grib2 2026-05-09 02:45 390K
20260509T00Z_MSC_RDPS_WindDir_IsbL-0020_RLatLon0.09_PT021H.grib2 2026-05-09 02:45 418K
20260509T00Z_MSC_RDPS_WindDir_IsbL-0030_RLatLon0.09_PT021H.grib2 2026-05-09 02:45 431K
20260509T00Z_MSC_RDPS_WindDir_IsbL-0050_RLatLon0.09_PT021H.grib2 2026-05-09 02:45 423K
20260509T00Z_MSC_RDPS_WindDir_IsbL-0100_RLatLon0.09_PT021H.grib2 2026-05-09 02:45 412K
20260509T00Z_MSC_RDPS_WindDir_IsbL-0150_RLatLon0.09_PT021H.grib2 2026-05-09 02:45 423K
20260509T00Z_MSC_RDPS_WindDir_IsbL-0175_RLatLon0.09_PT021H.grib2 2026-05-09 02:45 450K
20260509T00Z_MSC_RDPS_WindDir_IsbL-0200_RLatLon0.09_PT021H.grib2 2026-05-09 02:45 462K
20260509T00Z_MSC_RDPS_WindDir_IsbL-0225_RLatLon0.09_PT021H.grib2 2026-05-09 02:45 466K
20260509T00Z_MSC_RDPS_WindDir_IsbL-0250_RLatLon0.09_PT021H.grib2 2026-05-09 02:45 469K
20260509T00Z_MSC_RDPS_WindDir_IsbL-0275_RLatLon0.09_PT021H.grib2 2026-05-09 02:45 485K
20260509T00Z_MSC_RDPS_WindDir_IsbL-0300_RLatLon0.09_PT021H.grib2 2026-05-09 02:45 483K
20260509T00Z_MSC_RDPS_WindDir_IsbL-0350_RLatLon0.09_PT021H.grib2 2026-05-09 02:45 503K
20260509T00Z_MSC_RDPS_WindDir_IsbL-0400_RLatLon0.09_PT021H.grib2 2026-05-09 02:45 529K
20260509T00Z_MSC_RDPS_WindDir_IsbL-0450_RLatLon0.09_PT021H.grib2 2026-05-09 02:45 546K
20260509T00Z_MSC_RDPS_WindDir_IsbL-0500_RLatLon0.09_PT021H.grib2 2026-05-09 02:45 570K
20260509T00Z_MSC_RDPS_WindDir_IsbL-0550_RLatLon0.09_PT021H.grib2 2026-05-09 02:45 582K
20260509T00Z_MSC_RDPS_WindDir_IsbL-0600_RLatLon0.09_PT021H.grib2 2026-05-09 02:45 603K
20260509T00Z_MSC_RDPS_WindDir_IsbL-0650_RLatLon0.09_PT021H.grib2 2026-05-09 02:45 641K
20260509T00Z_MSC_RDPS_WindDir_IsbL-0700_RLatLon0.09_PT021H.grib2 2026-05-09 02:45 687K
20260509T00Z_MSC_RDPS_WindDir_IsbL-0750_RLatLon0.09_PT021H.grib2 2026-05-09 02:45 741K
20260509T00Z_MSC_RDPS_WindDir_IsbL-0800_RLatLon0.09_PT021H.grib2 2026-05-09 02:45 804K
20260509T00Z_MSC_RDPS_WindDir_IsbL-0850_RLatLon0.09_PT021H.grib2 2026-05-09 02:45 864K
20260509T00Z_MSC_RDPS_WindDir_IsbL-0875_RLatLon0.09_PT021H.grib2 2026-05-09 02:45 887K
20260509T00Z_MSC_RDPS_WindDir_IsbL-0900_RLatLon0.09_PT021H.grib2 2026-05-09 02:45 903K
20260509T00Z_MSC_RDPS_WindDir_IsbL-0925_RLatLon0.09_PT021H.grib2 2026-05-09 02:45 911K
20260509T00Z_MSC_RDPS_WindDir_IsbL-0950_RLatLon0.09_PT021H.grib2 2026-05-09 02:45 910K
20260509T00Z_MSC_RDPS_WindDir_IsbL-0970_RLatLon0.09_PT021H.grib2 2026-05-09 02:45 912K
20260509T00Z_MSC_RDPS_WindDir_IsbL-0985_RLatLon0.09_PT021H.grib2 2026-05-09 02:45 920K
20260509T00Z_MSC_RDPS_WindDir_IsbL-1000_RLatLon0.09_PT021H.grib2 2026-05-09 02:45 935K
20260509T00Z_MSC_RDPS_WindDir_IsbL-1015_RLatLon0.09_PT021H.grib2 2026-05-09 02:45 950K
20260509T00Z_MSC_RDPS_WindGust-Max_AGL-10m_RLatLon0.09_PT021H.grib2 2026-05-09 02:45 1.0M
20260509T00Z_MSC_RDPS_WindGust-Min_AGL-10m_RLatLon0.09_PT021H.grib2 2026-05-09 02:45 1.0M
20260509T00Z_MSC_RDPS_WindGust_AGL-10m_RLatLon0.09_PT021H.grib2 2026-05-09 02:45 1.0M
20260509T00Z_MSC_RDPS_WindSpeed_AGL-10m_RLatLon0.09_PT021H.grib2 2026-05-09 02:45 845K
20260509T00Z_MSC_RDPS_WindSpeed_AGL-120m_RLatLon0.09_PT021H.grib2 2026-05-09 02:45 539K
20260509T00Z_MSC_RDPS_WindSpeed_AGL-40m_RLatLon0.09_PT021H.grib2 2026-05-09 02:45 675K
20260509T00Z_MSC_RDPS_WindSpeed_AGL-80m_RLatLon0.09_PT021H.grib2 2026-05-09 02:45 541K
20260509T00Z_MSC_RDPS_WindSpeed_IsbL-0001_RLatLon0.09_PT021H.grib2 2026-05-09 02:45 253K
20260509T00Z_MSC_RDPS_WindSpeed_IsbL-0005_RLatLon0.09_PT021H.grib2 2026-05-09 02:45 383K
20260509T00Z_MSC_RDPS_WindSpeed_IsbL-0010_RLatLon0.09_PT021H.grib2 2026-05-09 02:45 399K
20260509T00Z_MSC_RDPS_WindSpeed_IsbL-0020_RLatLon0.09_PT021H.grib2 2026-05-09 02:45 325K
20260509T00Z_MSC_RDPS_WindSpeed_IsbL-0030_RLatLon0.09_PT021H.grib2 2026-05-09 02:45 321K
20260509T00Z_MSC_RDPS_WindSpeed_IsbL-0050_RLatLon0.09_PT021H.grib2 2026-05-09 02:45 343K
20260509T00Z_MSC_RDPS_WindSpeed_IsbL-0100_RLatLon0.09_PT021H.grib2 2026-05-09 02:45 476K
20260509T00Z_MSC_RDPS_WindSpeed_IsbL-0150_RLatLon0.09_PT021H.grib2 2026-05-09 02:45 379K
20260509T00Z_MSC_RDPS_WindSpeed_IsbL-0175_RLatLon0.09_PT021H.grib2 2026-05-09 02:45 427K
20260509T00Z_MSC_RDPS_WindSpeed_IsbL-0200_RLatLon0.09_PT021H.grib2 2026-05-09 02:45 441K
20260509T00Z_MSC_RDPS_WindSpeed_IsbL-0225_RLatLon0.09_PT021H.grib2 2026-05-09 02:45 449K
20260509T00Z_MSC_RDPS_WindSpeed_IsbL-0250_RLatLon0.09_PT021H.grib2 2026-05-09 02:45 455K
20260509T00Z_MSC_RDPS_WindSpeed_IsbL-0275_RLatLon0.09_PT021H.grib2 2026-05-09 02:45 472K
20260509T00Z_MSC_RDPS_WindSpeed_IsbL-0300_RLatLon0.09_PT021H.grib2 2026-05-09 02:45 468K
20260509T00Z_MSC_RDPS_WindSpeed_IsbL-0350_RLatLon0.09_PT021H.grib2 2026-05-09 02:45 476K
20260509T00Z_MSC_RDPS_WindSpeed_IsbL-0400_RLatLon0.09_PT021H.grib2 2026-05-09 02:45 481K
20260509T00Z_MSC_RDPS_WindSpeed_IsbL-0450_RLatLon0.09_PT021H.grib2 2026-05-09 02:45 466K
20260509T00Z_MSC_RDPS_WindSpeed_IsbL-0500_RLatLon0.09_PT021H.grib2 2026-05-09 02:45 469K
20260509T00Z_MSC_RDPS_WindSpeed_IsbL-0550_RLatLon0.09_PT021H.grib2 2026-05-09 02:45 471K
20260509T00Z_MSC_RDPS_WindSpeed_IsbL-0600_RLatLon0.09_PT021H.grib2 2026-05-09 02:45 601K
20260509T00Z_MSC_RDPS_WindSpeed_IsbL-0650_RLatLon0.09_PT021H.grib2 2026-05-09 02:45 623K
20260509T00Z_MSC_RDPS_WindSpeed_IsbL-0700_RLatLon0.09_PT021H.grib2 2026-05-09 02:45 652K
20260509T00Z_MSC_RDPS_WindSpeed_IsbL-0750_RLatLon0.09_PT021H.grib2 2026-05-09 02:45 731K
20260509T00Z_MSC_RDPS_WindSpeed_IsbL-0800_RLatLon0.09_PT021H.grib2 2026-05-09 02:45 778K
20260509T00Z_MSC_RDPS_WindSpeed_IsbL-0850_RLatLon0.09_PT021H.grib2 2026-05-09 02:45 825K
20260509T00Z_MSC_RDPS_WindSpeed_IsbL-0875_RLatLon0.09_PT021H.grib2 2026-05-09 02:45 841K
20260509T00Z_MSC_RDPS_WindSpeed_IsbL-0900_RLatLon0.09_PT021H.grib2 2026-05-09 02:45 854K
20260509T00Z_MSC_RDPS_WindSpeed_IsbL-0925_RLatLon0.09_PT021H.grib2 2026-05-09 02:45 865K
20260509T00Z_MSC_RDPS_WindSpeed_IsbL-0950_RLatLon0.09_PT021H.grib2 2026-05-09 02:45 867K
20260509T00Z_MSC_RDPS_WindSpeed_IsbL-0970_RLatLon0.09_PT021H.grib2 2026-05-09 02:45 865K
20260509T00Z_MSC_RDPS_WindSpeed_IsbL-0985_RLatLon0.09_PT021H.grib2 2026-05-09 02:45 861K
20260509T00Z_MSC_RDPS_WindSpeed_IsbL-1000_RLatLon0.09_PT021H.grib2 2026-05-09 02:45 856K
20260509T00Z_MSC_RDPS_WindSpeed_IsbL-1015_RLatLon0.09_PT021H.grib2 2026-05-09 02:45 848K
20260509T00Z_MSC_RDPS_WindU_AGL-10m_RLatLon0.09_PT021H.grib2 2026-05-09 02:45 437K
20260509T00Z_MSC_RDPS_WindU_AGL-120m_RLatLon0.09_PT021H.grib2 2026-05-09 02:45 537K
20260509T00Z_MSC_RDPS_WindU_AGL-40m_RLatLon0.09_PT021H.grib2 2026-05-09 02:45 541K
20260509T00Z_MSC_RDPS_WindU_AGL-80m_RLatLon0.09_PT021H.grib2 2026-05-09 02:45 539K
20260509T00Z_MSC_RDPS_WindU_IsbL-0001_RLatLon0.09_PT021H.grib2 2026-05-09 02:45 295K
20260509T00Z_MSC_RDPS_WindU_IsbL-0005_RLatLon0.09_PT021H.grib2 2026-05-09 02:45 288K
20260509T00Z_MSC_RDPS_WindU_IsbL-0010_RLatLon0.09_PT021H.grib2 2026-05-09 02:45 299K
20260509T00Z_MSC_RDPS_WindU_IsbL-0020_RLatLon0.09_PT021H.grib2 2026-05-09 02:45 353K
20260509T00Z_MSC_RDPS_WindU_IsbL-0030_RLatLon0.09_PT021H.grib2 2026-05-09 02:45 311K
20260509T00Z_MSC_RDPS_WindU_IsbL-0050_RLatLon0.09_PT021H.grib2 2026-05-09 02:45 373K
20260509T00Z_MSC_RDPS_WindU_IsbL-0100_RLatLon0.09_PT021H.grib2 2026-05-09 02:45 431K
20260509T00Z_MSC_RDPS_WindU_IsbL-0150_RLatLon0.09_PT021H.grib2 2026-05-09 02:45 397K
20260509T00Z_MSC_RDPS_WindU_IsbL-0175_RLatLon0.09_PT021H.grib2 2026-05-09 02:45 421K
20260509T00Z_MSC_RDPS_WindU_IsbL-0200_RLatLon0.09_PT021H.grib2 2026-05-09 02:45 338K
20260509T00Z_MSC_RDPS_WindU_IsbL-0225_RLatLon0.09_PT021H.grib2 2026-05-09 02:45 343K
20260509T00Z_MSC_RDPS_WindU_IsbL-0250_RLatLon0.09_PT021H.grib2 2026-05-09 02:45 344K
20260509T00Z_MSC_RDPS_WindU_IsbL-0275_RLatLon0.09_PT021H.grib2 2026-05-09 02:45 358K
20260509T00Z_MSC_RDPS_WindU_IsbL-0300_RLatLon0.09_PT021H.grib2 2026-05-09 02:45 353K
20260509T00Z_MSC_RDPS_WindU_IsbL-0350_RLatLon0.09_PT021H.grib2 2026-05-09 02:45 359K
20260509T00Z_MSC_RDPS_WindU_IsbL-0400_RLatLon0.09_PT021H.grib2 2026-05-09 02:45 468K
20260509T00Z_MSC_RDPS_WindU_IsbL-0450_RLatLon0.09_PT021H.grib2 2026-05-09 02:45 471K
20260509T00Z_MSC_RDPS_WindU_IsbL-0500_RLatLon0.09_PT021H.grib2 2026-05-09 02:45 474K
20260509T00Z_MSC_RDPS_WindU_IsbL-0550_RLatLon0.09_PT021H.grib2 2026-05-09 02:45 479K
20260509T00Z_MSC_RDPS_WindU_IsbL-0600_RLatLon0.09_PT021H.grib2 2026-05-09 02:45 489K
20260509T00Z_MSC_RDPS_WindU_IsbL-0650_RLatLon0.09_PT021H.grib2 2026-05-09 02:45 509K
20260509T00Z_MSC_RDPS_WindU_IsbL-0700_RLatLon0.09_PT021H.grib2 2026-05-09 02:45 520K
20260509T00Z_MSC_RDPS_WindU_IsbL-0750_RLatLon0.09_PT021H.grib2 2026-05-09 02:45 551K
20260509T00Z_MSC_RDPS_WindU_IsbL-0800_RLatLon0.09_PT021H.grib2 2026-05-09 02:45 591K
20260509T00Z_MSC_RDPS_WindU_IsbL-0850_RLatLon0.09_PT021H.grib2 2026-05-09 02:45 631K
20260509T00Z_MSC_RDPS_WindU_IsbL-0875_RLatLon0.09_PT021H.grib2 2026-05-09 02:45 645K
20260509T00Z_MSC_RDPS_WindU_IsbL-0900_RLatLon0.09_PT021H.grib2 2026-05-09 02:45 659K
20260509T00Z_MSC_RDPS_WindU_IsbL-0925_RLatLon0.09_PT021H.grib2 2026-05-09 02:45 665K
20260509T00Z_MSC_RDPS_WindU_IsbL-0950_RLatLon0.09_PT021H.grib2 2026-05-09 02:45 662K
20260509T00Z_MSC_RDPS_WindU_IsbL-0970_RLatLon0.09_PT021H.grib2 2026-05-09 02:45 658K
20260509T00Z_MSC_RDPS_WindU_IsbL-0985_RLatLon0.09_PT021H.grib2 2026-05-09 02:45 795K
20260509T00Z_MSC_RDPS_WindU_IsbL-1000_RLatLon0.09_PT021H.grib2 2026-05-09 02:45 792K
20260509T00Z_MSC_RDPS_WindU_IsbL-1015_RLatLon0.09_PT021H.grib2 2026-05-09 02:45 833K
20260509T00Z_MSC_RDPS_WindV_AGL-10m_RLatLon0.09_PT021H.grib2 2026-05-09 02:45 437K
20260509T00Z_MSC_RDPS_WindV_AGL-120m_RLatLon0.09_PT021H.grib2 2026-05-09 02:45 536K
20260509T00Z_MSC_RDPS_WindV_AGL-40m_RLatLon0.09_PT021H.grib2 2026-05-09 02:45 540K
20260509T00Z_MSC_RDPS_WindV_AGL-80m_RLatLon0.09_PT021H.grib2 2026-05-09 02:45 537K
20260509T00Z_MSC_RDPS_WindV_IsbL-0001_RLatLon0.09_PT021H.grib2 2026-05-09 02:45 294K
20260509T00Z_MSC_RDPS_WindV_IsbL-0005_RLatLon0.09_PT021H.grib2 2026-05-09 02:45 287K
20260509T00Z_MSC_RDPS_WindV_IsbL-0010_RLatLon0.09_PT021H.grib2 2026-05-09 02:45 300K
20260509T00Z_MSC_RDPS_WindV_IsbL-0020_RLatLon0.09_PT021H.grib2 2026-05-09 02:45 315K
20260509T00Z_MSC_RDPS_WindV_IsbL-0030_RLatLon0.09_PT021H.grib2 2026-05-09 02:45 314K
20260509T00Z_MSC_RDPS_WindV_IsbL-0050_RLatLon0.09_PT021H.grib2 2026-05-09 02:45 338K
20260509T00Z_MSC_RDPS_WindV_IsbL-0100_RLatLon0.09_PT021H.grib2 2026-05-09 02:45 427K
20260509T00Z_MSC_RDPS_WindV_IsbL-0150_RLatLon0.09_PT021H.grib2 2026-05-09 02:45 394K
20260509T00Z_MSC_RDPS_WindV_IsbL-0175_RLatLon0.09_PT021H.grib2 2026-05-09 02:45 418K
20260509T00Z_MSC_RDPS_WindV_IsbL-0200_RLatLon0.09_PT021H.grib2 2026-05-09 02:45 336K
20260509T00Z_MSC_RDPS_WindV_IsbL-0225_RLatLon0.09_PT021H.grib2 2026-05-09 02:45 341K
20260509T00Z_MSC_RDPS_WindV_IsbL-0250_RLatLon0.09_PT021H.grib2 2026-05-09 02:45 369K
20260509T00Z_MSC_RDPS_WindV_IsbL-0275_RLatLon0.09_PT021H.grib2 2026-05-09 02:45 382K
20260509T00Z_MSC_RDPS_WindV_IsbL-0300_RLatLon0.09_PT021H.grib2 2026-05-09 02:45 377K
20260509T00Z_MSC_RDPS_WindV_IsbL-0350_RLatLon0.09_PT021H.grib2 2026-05-09 02:45 359K
20260509T00Z_MSC_RDPS_WindV_IsbL-0400_RLatLon0.09_PT021H.grib2 2026-05-09 02:45 362K
20260509T00Z_MSC_RDPS_WindV_IsbL-0450_RLatLon0.09_PT021H.grib2 2026-05-09 02:45 467K
20260509T00Z_MSC_RDPS_WindV_IsbL-0500_RLatLon0.09_PT021H.grib2 2026-05-09 02:45 471K
20260509T00Z_MSC_RDPS_WindV_IsbL-0550_RLatLon0.09_PT021H.grib2 2026-05-09 02:45 474K
20260509T00Z_MSC_RDPS_WindV_IsbL-0600_RLatLon0.09_PT021H.grib2 2026-05-09 02:45 484K
20260509T00Z_MSC_RDPS_WindV_IsbL-0650_RLatLon0.09_PT021H.grib2 2026-05-09 02:45 504K
20260509T00Z_MSC_RDPS_WindV_IsbL-0700_RLatLon0.09_PT021H.grib2 2026-05-09 02:45 529K
20260509T00Z_MSC_RDPS_WindV_IsbL-0750_RLatLon0.09_PT021H.grib2 2026-05-09 02:45 546K
20260509T00Z_MSC_RDPS_WindV_IsbL-0800_RLatLon0.09_PT021H.grib2 2026-05-09 02:45 586K
20260509T00Z_MSC_RDPS_WindV_IsbL-0850_RLatLon0.09_PT021H.grib2 2026-05-09 02:45 627K
20260509T00Z_MSC_RDPS_WindV_IsbL-0875_RLatLon0.09_PT021H.grib2 2026-05-09 02:45 642K
20260509T00Z_MSC_RDPS_WindV_IsbL-0900_RLatLon0.09_PT021H.grib2 2026-05-09 02:45 657K
20260509T00Z_MSC_RDPS_WindV_IsbL-0925_RLatLon0.09_PT021H.grib2 2026-05-09 02:45 665K
20260509T00Z_MSC_RDPS_WindV_IsbL-0950_RLatLon0.09_PT021H.grib2 2026-05-09 02:45 664K
20260509T00Z_MSC_RDPS_WindV_IsbL-0970_RLatLon0.09_PT021H.grib2 2026-05-09 02:45 661K
20260509T00Z_MSC_RDPS_WindV_IsbL-0985_RLatLon0.09_PT021H.grib2 2026-05-09 02:45 797K
20260509T00Z_MSC_RDPS_WindV_IsbL-1000_RLatLon0.09_PT021H.grib2 2026-05-09 02:45 792K
20260509T00Z_MSC_RDPS_WindV_IsbL-1015_RLatLon0.09_PT021H.grib2 2026-05-09 02:45 832K